Year,Month,Day,Hour,Minute,Value (Times are PST for temperature in C)
2018,04,23,00,00,5.10
2018,04,23,00,01,5.00
2018,04,23,00,02,5.00
2018,04,23,00,03,5.00
2018,04,23,00,04,4.90
2018,04,23,00,05,4.90
2018,04,23,00,06,4.90
2018,04,23,00,07,4.90
2018,04,23,00,08,4.90
2018,04,23,00,09,4.80
2018,04,23,00,10,4.80
2018,04,23,00,11,4.80
2018,04,23,00,12,4.80
2018,04,23,00,13,4.80
2018,04,23,00,14,4.80
2018,04,23,00,15,4.80
2018,04,23,00,16,4.70
2018,04,23,00,17,4.70
2018,04,23,00,18,4.70
2018,04,23,00,19,4.70
2018,04,23,00,20,4.60
2018,04,23,00,21,4.60
2018,04,23,00,22,4.60
2018,04,23,00,23,4.60
2018,04,23,00,24,4.60
2018,04,23,00,25,4.50
2018,04,23,00,26,4.50
2018,04,23,00,27,4.50
2018,04,23,00,28,4.50
2018,04,23,00,29,4.40
2018,04,23,00,30,4.40
2018,04,23,00,31,4.40
2018,04,23,00,32,4.40
2018,04,23,00,33,4.40
2018,04,23,00,34,4.30
2018,04,23,00,35,4.30
2018,04,23,00,36,4.30
2018,04,23,00,37,4.30
2018,04,23,00,38,4.30
2018,04,23,00,39,4.30
2018,04,23,00,40,4.20
2018,04,23,00,41,4.20
2018,04,23,00,42,4.20
2018,04,23,00,43,4.20
2018,04,23,00,44,4.20
2018,04,23,00,45,4.20
2018,04,23,00,46,4.20
2018,04,23,00,47,4.20
2018,04,23,00,48,4.20
2018,04,23,00,49,4.20
2018,04,23,00,50,4.20
2018,04,23,00,51,4.20
2018,04,23,00,52,4.20
2018,04,23,00,53,4.20
2018,04,23,00,54,4.10
2018,04,23,00,55,4.10
2018,04,23,00,56,4.10
2018,04,23,00,57,4.10
2018,04,23,00,58,4.00
2018,04,23,00,59,4.00
2018,04,23,01,00,4.00
2018,04,23,01,01,4.00
2018,04,23,01,02,4.00
2018,04,23,01,03,3.90
2018,04,23,01,04,3.90
2018,04,23,01,05,3.90
2018,04,23,01,06,3.90
2018,04,23,01,07,3.90
2018,04,23,01,08,3.90
2018,04,23,01,09,3.90
2018,04,23,01,10,3.80
2018,04,23,01,11,3.80
2018,04,23,01,12,3.80
2018,04,23,01,13,3.80
2018,04,23,01,14,3.80
2018,04,23,01,15,3.80
2018,04,23,01,16,3.80
2018,04,23,01,17,3.80
2018,04,23,01,18,3.80
2018,04,23,01,19,3.80
2018,04,23,01,20,3.80
2018,04,23,01,21,3.80
2018,04,23,01,22,3.80
2018,04,23,01,23,3.80
2018,04,23,01,24,3.70
2018,04,23,01,25,3.80
2018,04,23,01,26,3.80
2018,04,23,01,27,3.80
2018,04,23,01,28,3.80
2018,04,23,01,29,3.80
2018,04,23,01,30,3.80
2018,04,23,01,31,3.80
2018,04,23,01,32,3.80
2018,04,23,01,33,3.80
2018,04,23,01,34,3.80
2018,04,23,01,35,3.80
2018,04,23,01,36,3.80
2018,04,23,01,37,3.80
2018,04,23,01,38,3.70
2018,04,23,01,39,3.70
2018,04,23,01,40,3.70
2018,04,23,01,41,3.70
2018,04,23,01,42,3.70
2018,04,23,01,43,3.70
2018,04,23,01,44,3.70
2018,04,23,01,45,3.60
2018,04,23,01,46,3.60
2018,04,23,01,47,3.60
2018,04,23,01,48,3.60
2018,04,23,01,49,3.60
2018,04,23,01,50,3.60
2018,04,23,01,51,3.60
2018,04,23,01,52,3.60
2018,04,23,01,53,3.60
2018,04,23,01,54,3.60
2018,04,23,01,55,3.60
2018,04,23,01,56,3.60
2018,04,23,01,57,3.60
2018,04,23,01,58,3.60
2018,04,23,01,59,3.60
2018,04,23,02,00,3.60
2018,04,23,02,01,3.50
2018,04,23,02,02,3.60
2018,04,23,02,03,3.60
2018,04,23,02,04,3.60
2018,04,23,02,05,3.60
2018,04,23,02,06,3.60
2018,04,23,02,07,3.50
2018,04,23,02,08,3.50
2018,04,23,02,09,3.50
2018,04,23,02,10,3.50
2018,04,23,02,11,3.50
2018,04,23,02,12,3.40
2018,04,23,02,13,3.40
2018,04,23,02,14,3.40
2018,04,23,02,15,3.40
2018,04,23,02,16,3.40
2018,04,23,02,17,3.40
2018,04,23,02,18,3.40
2018,04,23,02,19,3.40
2018,04,23,02,20,3.30
2018,04,23,02,21,3.30
2018,04,23,02,22,3.30
2018,04,23,02,23,3.30
2018,04,23,02,24,3.30
2018,04,23,02,25,3.30
2018,04,23,02,26,3.30
2018,04,23,02,27,3.30
2018,04,23,02,28,3.30
2018,04,23,02,29,3.30
2018,04,23,02,30,3.30
2018,04,23,02,31,3.30
2018,04,23,02,32,3.30
2018,04,23,02,33,3.30
2018,04,23,02,34,3.30
2018,04,23,02,35,3.30
2018,04,23,02,36,3.30
2018,04,23,02,37,3.30
2018,04,23,02,38,3.30
2018,04,23,02,39,3.30
2018,04,23,02,40,3.30
2018,04,23,02,41,3.30
2018,04,23,02,42,3.30
2018,04,23,02,43,3.30
2018,04,23,02,44,3.30
2018,04,23,02,45,3.20
2018,04,23,02,46,3.20
2018,04,23,02,47,3.20
2018,04,23,02,48,3.20
2018,04,23,02,49,3.20
2018,04,23,02,50,3.20
2018,04,23,02,51,3.20
2018,04,23,02,52,3.20
2018,04,23,02,53,3.20
2018,04,23,02,54,3.30
2018,04,23,02,55,3.30
2018,04,23,02,56,3.30
2018,04,23,02,57,3.30
2018,04,23,02,58,3.30
2018,04,23,02,59,3.30
2018,04,23,03,00,3.20
2018,04,23,03,01,3.20
2018,04,23,03,02,3.20
2018,04,23,03,03,3.20
2018,04,23,03,04,3.20
2018,04,23,03,05,3.20
2018,04,23,03,06,3.20
2018,04,23,03,07,3.20
2018,04,23,03,08,3.20
2018,04,23,03,09,3.20
2018,04,23,03,10,3.20
2018,04,23,03,11,3.20
2018,04,23,03,12,3.20
2018,04,23,03,13,3.20
2018,04,23,03,14,3.20
2018,04,23,03,15,3.20
2018,04,23,03,16,3.20
2018,04,23,03,17,3.10
2018,04,23,03,18,3.10
2018,04,23,03,19,3.10
2018,04,23,03,20,3.10
2018,04,23,03,21,3.10
2018,04,23,03,22,3.10
2018,04,23,03,23,3.10
2018,04,23,03,24,3.10
2018,04,23,03,25,3.10
2018,04,23,03,26,3.10
2018,04,23,03,27,3.10
2018,04,23,03,28,3.10
2018,04,23,03,29,3.10
2018,04,23,03,30,3.10
2018,04,23,03,31,3.10
2018,04,23,03,32,3.10
2018,04,23,03,33,3.10
2018,04,23,03,34,3.00
2018,04,23,03,35,3.00
2018,04,23,03,36,3.00
2018,04,23,03,37,3.00
2018,04,23,03,38,3.00
2018,04,23,03,39,2.90
2018,04,23,03,40,2.90
2018,04,23,03,41,2.90
2018,04,23,03,42,2.90
2018,04,23,03,43,2.90
2018,04,23,03,44,2.90
2018,04,23,03,45,2.90
2018,04,23,03,46,2.80
2018,04,23,03,47,2.80
2018,04,23,03,48,2.80
2018,04,23,03,49,2.80
2018,04,23,03,50,2.80
2018,04,23,03,51,2.80
2018,04,23,03,52,2.70
2018,04,23,03,53,2.70
2018,04,23,03,54,2.80
2018,04,23,03,55,2.80
2018,04,23,03,56,2.80
2018,04,23,03,57,2.80
2018,04,23,03,58,2.80
2018,04,23,03,59,2.80
2018,04,23,04,00,2.80
2018,04,23,04,01,2.80
2018,04,23,04,02,2.80
2018,04,23,04,03,2.80
2018,04,23,04,04,2.80
2018,04,23,04,05,2.80
2018,04,23,04,06,2.80
2018,04,23,04,07,2.80
2018,04,23,04,08,2.70
2018,04,23,04,09,2.70
2018,04,23,04,10,2.70
2018,04,23,04,11,2.70
2018,04,23,04,12,2.70
2018,04,23,04,13,2.70
2018,04,23,04,14,2.70
2018,04,23,04,15,2.70
2018,04,23,04,16,2.70
2018,04,23,04,17,2.70
2018,04,23,04,18,2.70
2018,04,23,04,19,2.70
2018,04,23,04,20,2.70
2018,04,23,04,21,2.70
2018,04,23,04,22,2.70
2018,04,23,04,23,2.70
2018,04,23,04,24,2.60
2018,04,23,04,25,2.70
2018,04,23,04,26,2.60
2018,04,23,04,27,2.60
2018,04,23,04,28,2.60
2018,04,23,04,29,2.60
2018,04,23,04,30,2.60
2018,04,23,04,31,2.70
2018,04,23,04,32,2.70
2018,04,23,04,33,2.70
2018,04,23,04,34,2.60
2018,04,23,04,35,2.60
2018,04,23,04,36,2.60
2018,04,23,04,37,2.60
2018,04,23,04,38,2.60
2018,04,23,04,39,2.60
2018,04,23,04,40,2.60
2018,04,23,04,41,2.60
2018,04,23,04,42,2.60
2018,04,23,04,43,2.60
2018,04,23,04,44,2.60
2018,04,23,04,45,2.60
2018,04,23,04,46,2.60
2018,04,23,04,47,2.60
2018,04,23,04,48,2.50
2018,04,23,04,49,2.50
2018,04,23,04,50,2.50
2018,04,23,04,51,2.50
2018,04,23,04,52,2.50
2018,04,23,04,53,2.40
2018,04,23,04,54,2.40
2018,04,23,04,55,2.40
2018,04,23,04,56,2.40
2018,04,23,04,57,2.40
2018,04,23,04,58,2.40
2018,04,23,04,59,2.40
2018,04,23,05,00,2.40
2018,04,23,05,01,2.40
2018,04,23,05,02,2.40
2018,04,23,05,03,2.40
2018,04,23,05,04,2.40
2018,04,23,05,05,2.40
2018,04,23,05,06,2.40
2018,04,23,05,07,2.40
2018,04,23,05,08,2.40
2018,04,23,05,09,2.40
2018,04,23,05,10,2.30
2018,04,23,05,11,2.30
2018,04,23,05,12,2.30
2018,04,23,05,13,2.30
2018,04,23,05,14,2.30
2018,04,23,05,15,2.30
2018,04,23,05,16,2.30
2018,04,23,05,17,2.30
2018,04,23,05,18,2.20
2018,04,23,05,19,2.20
2018,04,23,05,20,2.20
2018,04,23,05,21,2.20
2018,04,23,05,22,2.20
2018,04,23,05,23,2.30
2018,04,23,05,24,2.30
2018,04,23,05,25,2.30
2018,04,23,05,26,2.30
2018,04,23,05,27,2.40
2018,04,23,05,28,2.40
2018,04,23,05,29,2.40
2018,04,23,05,30,2.40
2018,04,23,05,31,2.40
2018,04,23,05,32,2.40
2018,04,23,05,33,2.40
2018,04,23,05,34,2.40
2018,04,23,05,35,2.40
2018,04,23,05,36,2.40
2018,04,23,05,37,2.40
2018,04,23,05,38,2.40
2018,04,23,05,39,2.40
2018,04,23,05,40,2.40
2018,04,23,05,41,2.50
2018,04,23,05,42,2.50
2018,04,23,05,43,2.50
2018,04,23,05,44,2.60
2018,04,23,05,45,2.60
2018,04,23,05,46,2.60
2018,04,23,05,47,2.60
2018,04,23,05,48,2.60
2018,04,23,05,49,2.60
2018,04,23,05,50,2.60
2018,04,23,05,51,2.60
2018,04,23,05,52,2.60
2018,04,23,05,53,2.60
2018,04,23,05,54,2.60
2018,04,23,05,55,2.60
2018,04,23,05,56,2.60
2018,04,23,05,57,2.60
2018,04,23,05,58,2.60
2018,04,23,05,59,2.60
2018,04,23,06,00,2.60
2018,04,23,06,01,2.60
2018,04,23,06,02,2.60
2018,04,23,06,03,2.60
2018,04,23,06,04,2.60
2018,04,23,06,05,2.60
2018,04,23,06,06,2.60
2018,04,23,06,07,2.60
2018,04,23,06,08,2.60
2018,04,23,06,09,2.60
2018,04,23,06,10,2.60
2018,04,23,06,11,2.60
2018,04,23,06,12,2.50
2018,04,23,06,13,2.60
2018,04,23,06,14,2.50
2018,04,23,06,15,2.60
2018,04,23,06,16,2.60
2018,04,23,06,17,2.60
2018,04,23,06,18,2.60
2018,04,23,06,19,2.60
2018,04,23,06,20,2.60
2018,04,23,06,21,2.60
2018,04,23,06,22,2.60
2018,04,23,06,23,2.60
2018,04,23,06,24,2.60
2018,04,23,06,25,2.60
2018,04,23,06,26,2.70
2018,04,23,06,27,2.70
2018,04,23,06,28,2.70
2018,04,23,06,29,2.70
2018,04,23,06,30,2.80
2018,04,23,06,31,2.80
2018,04,23,06,32,2.90
2018,04,23,06,33,3.00
2018,04,23,06,34,3.10
2018,04,23,06,35,3.20
2018,04,23,06,36,3.20
2018,04,23,06,37,3.30
2018,04,23,06,38,3.30
2018,04,23,06,39,3.40
2018,04,23,06,40,3.50
2018,04,23,06,41,3.60
2018,04,23,06,42,3.70
2018,04,23,06,43,3.80
2018,04,23,06,44,3.90
2018,04,23,06,45,4.00
2018,04,23,06,46,4.10
2018,04,23,06,47,4.20
2018,04,23,06,48,4.30
2018,04,23,06,49,4.40
2018,04,23,06,50,4.50
2018,04,23,06,51,4.60
2018,04,23,06,52,4.70
2018,04,23,06,53,4.80
2018,04,23,06,54,4.90
2018,04,23,06,55,5.10
2018,04,23,06,56,5.20
2018,04,23,06,57,5.30
2018,04,23,06,58,5.50
2018,04,23,06,59,5.60
2018,04,23,07,00,5.80
2018,04,23,07,01,5.90
2018,04,23,07,02,6.00
2018,04,23,07,03,6.20
2018,04,23,07,04,6.30
2018,04,23,07,05,6.40
2018,04,23,07,06,6.60
2018,04,23,07,07,6.70
2018,04,23,07,08,6.80
2018,04,23,07,09,7.00
2018,04,23,07,10,7.10
2018,04,23,07,11,7.20
2018,04,23,07,12,7.30
2018,04,23,07,13,7.40
2018,04,23,07,14,7.40
2018,04,23,07,15,7.50
2018,04,23,07,16,7.50
2018,04,23,07,17,7.60
2018,04,23,07,18,7.60
2018,04,23,07,19,7.70
2018,04,23,07,20,7.70
2018,04,23,07,21,7.80
2018,04,23,07,22,7.80
2018,04,23,07,23,7.90
2018,04,23,07,24,7.90
2018,04,23,07,25,8.00
2018,04,23,07,26,8.00
2018,04,23,07,27,8.00
2018,04,23,07,28,8.10
2018,04,23,07,29,8.10
2018,04,23,07,30,8.10
2018,04,23,07,31,8.10
2018,04,23,07,32,8.10
2018,04,23,07,33,8.20
2018,04,23,07,34,8.20
2018,04,23,07,35,8.30
2018,04,23,07,36,8.30
2018,04,23,07,37,8.40
2018,04,23,07,38,8.40
2018,04,23,07,39,8.50
2018,04,23,07,40,8.60
2018,04,23,07,41,8.70
2018,04,23,07,42,8.80
2018,04,23,07,43,8.90
2018,04,23,07,44,9.00
2018,04,23,07,45,9.10
2018,04,23,07,46,9.20
2018,04,23,07,47,9.40
2018,04,23,07,48,9.50
2018,04,23,07,49,9.60
2018,04,23,07,50,9.70
2018,04,23,07,51,9.80
2018,04,23,07,52,9.80
2018,04,23,07,53,9.90
2018,04,23,07,54,10.00
2018,04,23,07,55,10.00
2018,04,23,07,56,10.10
2018,04,23,07,57,10.10
2018,04,23,07,58,10.10
2018,04,23,07,59,10.20
2018,04,23,08,00,10.20
2018,04,23,08,01,10.20
2018,04,23,08,02,10.20
2018,04,23,08,03,10.20
2018,04,23,08,04,10.20
2018,04,23,08,05,10.30
2018,04,23,08,06,10.30
2018,04,23,08,07,10.30
2018,04,23,08,08,10.40
2018,04,23,08,09,10.40
2018,04,23,08,10,10.50
2018,04,23,08,11,10.50
2018,04,23,08,12,10.60
2018,04,23,08,13,10.60
2018,04,23,08,14,10.60
2018,04,23,08,15,10.60
2018,04,23,08,16,10.60
2018,04,23,08,17,10.60
2018,04,23,08,18,10.60
2018,04,23,08,19,10.70
2018,04,23,08,20,10.70
2018,04,23,08,21,10.70
2018,04,23,08,22,10.80
2018,04,23,08,23,10.80
2018,04,23,08,24,10.80
2018,04,23,08,25,10.90
2018,04,23,08,26,10.90
2018,04,23,08,27,10.90
2018,04,23,08,28,10.90
2018,04,23,08,29,10.90
2018,04,23,08,30,10.90
2018,04,23,08,31,10.90
2018,04,23,08,32,10.90
2018,04,23,08,33,10.90
2018,04,23,08,34,10.90
2018,04,23,08,35,10.90
2018,04,23,08,36,11.00
2018,04,23,08,37,11.00
2018,04,23,08,38,11.10
2018,04,23,08,39,11.10
2018,04,23,08,40,11.10
2018,04,23,08,41,11.10
2018,04,23,08,42,11.10
2018,04,23,08,43,11.10
2018,04,23,08,44,11.10
2018,04,23,08,45,11.10
2018,04,23,08,46,11.10
2018,04,23,08,47,11.20
2018,04,23,08,48,11.20
2018,04,23,08,49,11.20
2018,04,23,08,50,11.30
2018,04,23,08,51,11.20
2018,04,23,08,52,11.20
2018,04,23,08,53,11.20
2018,04,23,08,54,11.20
2018,04,23,08,55,11.20
2018,04,23,08,56,11.20
2018,04,23,08,57,11.20
2018,04,23,08,58,11.20
2018,04,23,08,59,11.30
2018,04,23,09,00,11.30
2018,04,23,09,01,11.30
2018,04,23,09,02,11.30
2018,04,23,09,03,11.30
2018,04,23,09,04,11.30
2018,04,23,09,05,11.30
2018,04,23,09,06,11.40
2018,04,23,09,07,11.40
2018,04,23,09,08,11.50
2018,04,23,09,09,11.50
2018,04,23,09,10,11.60
2018,04,23,09,11,11.70
2018,04,23,09,12,11.60
2018,04,23,09,13,11.60
2018,04,23,09,14,11.50
2018,04,23,09,15,11.50
2018,04,23,09,16,11.50
2018,04,23,09,17,11.40
2018,04,23,09,18,11.40
2018,04,23,09,19,11.40
2018,04,23,09,20,11.40
2018,04,23,09,21,11.40
2018,04,23,09,22,11.50
2018,04,23,09,23,11.50
2018,04,23,09,24,11.50
2018,04,23,09,25,11.50
2018,04,23,09,26,11.60
2018,04,23,09,27,11.60
2018,04,23,09,28,11.70
2018,04,23,09,29,11.70
2018,04,23,09,30,11.70
2018,04,23,09,31,11.80
2018,04,23,09,32,11.80
2018,04,23,09,33,11.90
2018,04,23,09,34,11.90
2018,04,23,09,35,11.90
2018,04,23,09,36,11.90
2018,04,23,09,37,12.00
2018,04,23,09,38,12.00
2018,04,23,09,39,12.00
2018,04,23,09,40,12.10
2018,04,23,09,41,12.10
2018,04,23,09,42,12.10
2018,04,23,09,43,12.20
2018,04,23,09,44,12.20
2018,04,23,09,45,12.20
2018,04,23,09,46,12.30
2018,04,23,09,47,12.40
2018,04,23,09,48,12.40
2018,04,23,09,49,12.50
2018,04,23,09,50,12.60
2018,04,23,09,51,12.70
2018,04,23,09,52,12.70
2018,04,23,09,53,12.70
2018,04,23,09,54,12.70
2018,04,23,09,55,12.60
2018,04,23,09,56,12.60
2018,04,23,09,57,12.60
2018,04,23,09,58,12.70
2018,04,23,09,59,12.70
2018,04,23,10,00,12.70
2018,04,23,10,01,12.70
2018,04,23,10,02,12.70
2018,04,23,10,03,12.70
2018,04,23,10,04,12.70
2018,04,23,10,05,12.80
2018,04,23,10,06,12.80
2018,04,23,10,07,12.80
2018,04,23,10,08,12.80
2018,04,23,10,09,12.80
2018,04,23,10,10,12.80
2018,04,23,10,11,12.80
2018,04,23,10,12,12.80
2018,04,23,10,13,12.90
2018,04,23,10,14,12.90
2018,04,23,10,15,12.90
2018,04,23,10,16,12.90
2018,04,23,10,17,13.00
2018,04,23,10,18,13.00
2018,04,23,10,19,13.10
2018,04,23,10,20,13.10
2018,04,23,10,21,13.10
2018,04,23,10,22,13.20
2018,04,23,10,23,13.20
2018,04,23,10,24,13.20
2018,04,23,10,25,13.30
2018,04,23,10,26,13.30
2018,04,23,10,27,13.40
2018,04,23,10,28,13.50
2018,04,23,10,29,13.50
2018,04,23,10,30,13.50
2018,04,23,10,31,13.40
2018,04,23,10,32,13.40
2018,04,23,10,33,13.40
2018,04,23,10,34,13.40
2018,04,23,10,35,13.50
2018,04,23,10,36,13.60
2018,04,23,10,37,13.60
2018,04,23,10,38,13.70
2018,04,23,10,39,13.80
2018,04,23,10,40,13.90
2018,04,23,10,41,13.90
2018,04,23,10,42,13.90
2018,04,23,10,43,14.00
2018,04,23,10,44,13.90
2018,04,23,10,45,13.90
2018,04,23,10,46,13.90
2018,04,23,10,47,13.90
2018,04,23,10,48,13.90
2018,04,23,10,49,13.90
2018,04,23,10,50,13.90
2018,04,23,10,51,13.90
2018,04,23,10,52,13.90
2018,04,23,10,53,13.90
2018,04,23,10,54,13.90
2018,04,23,10,55,13.90
2018,04,23,10,56,13.90
2018,04,23,10,57,13.80
2018,04,23,10,58,13.80
2018,04,23,10,59,13.80
2018,04,23,11,00,13.80
2018,04,23,11,01,13.80
2018,04,23,11,02,13.90
2018,04,23,11,03,13.90
2018,04,23,11,04,13.90
2018,04,23,11,05,13.90
2018,04,23,11,06,14.00
2018,04,23,11,07,14.00
2018,04,23,11,08,14.10
2018,04,23,11,09,14.10
2018,04,23,11,10,14.10
2018,04,23,11,11,14.10
2018,04,23,11,12,14.00
2018,04,23,11,13,14.00
2018,04,23,11,14,14.00
2018,04,23,11,15,14.10
2018,04,23,11,16,14.10
2018,04,23,11,17,14.20
2018,04,23,11,18,14.30
2018,04,23,11,19,14.40
2018,04,23,11,20,14.50
2018,04,23,11,21,14.50
2018,04,23,11,22,14.50
2018,04,23,11,23,14.40
2018,04,23,11,24,14.40
2018,04,23,11,25,14.30
2018,04,23,11,26,14.30
2018,04,23,11,27,14.30
2018,04,23,11,28,14.30
2018,04,23,11,29,14.20
2018,04,23,11,30,14.20
2018,04,23,11,31,14.20
2018,04,23,11,32,14.20
2018,04,23,11,33,14.20
2018,04,23,11,34,14.20
2018,04,23,11,35,14.30
2018,04,23,11,36,14.40
2018,04,23,11,37,14.50
2018,04,23,11,38,14.60
2018,04,23,11,39,14.70
2018,04,23,11,40,14.70
2018,04,23,11,41,14.70
2018,04,23,11,42,14.60
2018,04,23,11,43,14.60
2018,04,23,11,44,14.50
2018,04,23,11,45,14.40
2018,04,23,11,46,14.40
2018,04,23,11,47,14.50
2018,04,23,11,48,14.60
2018,04,23,11,49,14.70
2018,04,23,11,50,14.70
2018,04,23,11,51,14.70
2018,04,23,11,52,14.70
2018,04,23,11,53,14.70
2018,04,23,11,54,14.70
2018,04,23,11,55,14.80
2018,04,23,11,56,14.80
2018,04,23,11,57,14.90
2018,04,23,11,58,15.00
2018,04,23,11,59,15.00
2018,04,23,12,00,15.10
2018,04,23,12,01,15.10
2018,04,23,12,02,15.10
2018,04,23,12,03,15.20
2018,04,23,12,04,15.30
2018,04,23,12,05,15.30
2018,04,23,12,06,15.30
2018,04,23,12,07,15.40
2018,04,23,12,08,15.30
2018,04,23,12,09,15.30
2018,04,23,12,10,15.20
2018,04,23,12,11,15.10
2018,04,23,12,12,15.10
2018,04,23,12,13,15.00
2018,04,23,12,14,15.00
2018,04,23,12,15,15.00
2018,04,23,12,16,15.10
2018,04,23,12,17,15.10
2018,04,23,12,18,15.10
2018,04,23,12,19,15.10
2018,04,23,12,20,15.10
2018,04,23,12,21,15.20
2018,04,23,12,22,15.20
2018,04,23,12,23,15.20
2018,04,23,12,24,15.20
2018,04,23,12,25,15.10
2018,04,23,12,26,15.20
2018,04,23,12,27,15.20
2018,04,23,12,28,15.30
2018,04,23,12,29,15.40
2018,04,23,12,30,15.50
2018,04,23,12,31,15.60
2018,04,23,12,32,15.60
2018,04,23,12,33,15.60
2018,04,23,12,34,15.60
2018,04,23,12,35,15.60
2018,04,23,12,36,15.50
2018,04,23,12,37,15.50
2018,04,23,12,38,15.40
2018,04,23,12,39,15.50
2018,04,23,12,40,15.50
2018,04,23,12,41,15.50
2018,04,23,12,42,15.50
2018,04,23,12,43,15.60
2018,04,23,12,44,15.70
2018,04,23,12,45,15.60
2018,04,23,12,46,15.60
2018,04,23,12,47,15.60
2018,04,23,12,48,15.60
2018,04,23,12,49,15.60
2018,04,23,12,50,15.60
2018,04,23,12,51,15.60
2018,04,23,12,52,15.60
2018,04,23,12,53,15.70
2018,04,23,12,54,15.70
2018,04,23,12,55,15.80
2018,04,23,12,56,15.90
2018,04,23,12,57,15.90
2018,04,23,12,58,16.00
2018,04,23,12,59,16.10
2018,04,23,13,00,16.10
2018,04,23,13,01,16.10
2018,04,23,13,02,16.20
2018,04,23,13,03,16.20
2018,04,23,13,04,16.20
2018,04,23,13,05,16.20
2018,04,23,13,06,16.10
2018,04,23,13,07,16.00
2018,04,23,13,08,16.00
2018,04,23,13,09,15.90
2018,04,23,13,10,15.80
2018,04,23,13,11,15.90
2018,04,23,13,12,15.90
2018,04,23,13,13,15.90
2018,04,23,13,14,15.90
2018,04,23,13,15,16.00
2018,04,23,13,16,16.00
2018,04,23,13,17,16.10
2018,04,23,13,18,16.10
2018,04,23,13,19,16.20
2018,04,23,13,20,16.30
2018,04,23,13,21,16.40
2018,04,23,13,22,16.50
2018,04,23,13,23,16.50
2018,04,23,13,24,16.60
2018,04,23,13,25,16.60
2018,04,23,13,26,16.60
2018,04,23,13,27,16.50
2018,04,23,13,28,16.60
2018,04,23,13,29,16.60
2018,04,23,13,30,16.60
2018,04,23,13,31,16.60
2018,04,23,13,32,16.60
2018,04,23,13,33,16.60
2018,04,23,13,34,16.50
2018,04,23,13,35,16.40
2018,04,23,13,36,16.40
2018,04,23,13,37,16.40
2018,04,23,13,38,16.40
2018,04,23,13,39,16.40
2018,04,23,13,40,16.40
2018,04,23,13,41,16.30
2018,04,23,13,42,16.30
2018,04,23,13,43,16.40
2018,04,23,13,44,16.40
2018,04,23,13,45,16.50
2018,04,23,13,46,16.50
2018,04,23,13,47,16.60
2018,04,23,13,48,16.80
2018,04,23,13,49,16.90
2018,04,23,13,50,17.00
2018,04,23,13,51,17.10
2018,04,23,13,52,17.20
2018,04,23,13,53,17.20
2018,04,23,13,54,17.20
2018,04,23,13,55,17.20
2018,04,23,13,56,17.20
2018,04,23,13,57,17.20
2018,04,23,13,58,17.20
2018,04,23,13,59,17.20
2018,04,23,14,00,17.10
2018,04,23,14,01,17.00
2018,04,23,14,02,17.00
2018,04,23,14,03,16.90
2018,04,23,14,04,16.90
2018,04,23,14,05,17.00
2018,04,23,14,06,17.00
2018,04,23,14,07,17.10
2018,04,23,14,08,17.10
2018,04,23,14,09,17.10
2018,04,23,14,10,17.20
2018,04,23,14,11,17.20
2018,04,23,14,12,17.20
2018,04,23,14,13,17.20
2018,04,23,14,14,17.20
2018,04,23,14,15,17.20
2018,04,23,14,16,17.30
2018,04,23,14,17,17.30
2018,04,23,14,18,17.30
2018,04,23,14,19,17.30
2018,04,23,14,20,17.30
2018,04,23,14,21,17.30
2018,04,23,14,22,17.40
2018,04,23,14,23,17.40
2018,04,23,14,24,17.50
2018,04,23,14,25,17.50
2018,04,23,14,26,17.60
2018,04,23,14,27,17.60
2018,04,23,14,28,17.60
2018,04,23,14,29,17.60
2018,04,23,14,30,17.70
2018,04,23,14,31,17.70
2018,04,23,14,32,17.70
2018,04,23,14,33,17.70
2018,04,23,14,34,17.70
2018,04,23,14,35,17.70
2018,04,23,14,36,17.70
2018,04,23,14,37,17.70
2018,04,23,14,38,17.70
2018,04,23,14,39,17.60
2018,04,23,14,40,17.60
2018,04,23,14,41,17.70
2018,04,23,14,42,17.60
2018,04,23,14,43,17.50
2018,04,23,14,44,17.50
2018,04,23,14,45,17.40
2018,04,23,14,46,17.40
2018,04,23,14,47,17.40
2018,04,23,14,48,17.40
2018,04,23,14,49,17.40
2018,04,23,14,50,17.40
2018,04,23,14,51,17.30
2018,04,23,14,52,17.30
2018,04,23,14,53,17.30
2018,04,23,14,54,17.30
2018,04,23,14,55,17.30
2018,04,23,14,56,17.30
2018,04,23,14,57,17.30
2018,04,23,14,58,17.40
2018,04,23,14,59,17.40
2018,04,23,15,00,17.50
2018,04,23,15,01,17.60
2018,04,23,15,02,17.60
2018,04,23,15,03,17.60
2018,04,23,15,04,17.60
2018,04,23,15,05,17.70
2018,04,23,15,06,17.70
2018,04,23,15,07,17.70
2018,04,23,15,08,17.70
2018,04,23,15,09,17.70
2018,04,23,15,10,17.70
2018,04,23,15,11,17.70
2018,04,23,15,12,17.70
2018,04,23,15,13,17.70
2018,04,23,15,14,17.70
2018,04,23,15,15,17.70
2018,04,23,15,16,17.70
2018,04,23,15,17,17.70
2018,04,23,15,18,17.70
2018,04,23,15,19,17.70
2018,04,23,15,20,17.70
2018,04,23,15,21,17.70
2018,04,23,15,22,17.70
2018,04,23,15,23,17.80
2018,04,23,15,24,17.80
2018,04,23,15,25,17.90
2018,04,23,15,26,17.80
2018,04,23,15,27,17.80
2018,04,23,15,28,17.80
2018,04,23,15,29,17.70
2018,04,23,15,30,17.70
2018,04,23,15,31,17.60
2018,04,23,15,32,17.60
2018,04,23,15,33,17.60
2018,04,23,15,34,17.70
2018,04,23,15,35,17.70
2018,04,23,15,36,17.80
2018,04,23,15,37,17.80
2018,04,23,15,38,17.80
2018,04,23,15,39,17.80
2018,04,23,15,40,17.70
2018,04,23,15,41,17.70
2018,04,23,15,42,17.80
2018,04,23,15,43,17.90
2018,04,23,15,44,17.90
2018,04,23,15,45,18.00
2018,04,23,15,46,18.00
2018,04,23,15,47,18.00
2018,04,23,15,48,18.00
2018,04,23,15,49,18.00
2018,04,23,15,50,18.10
2018,04,23,15,51,18.10
2018,04,23,15,52,18.10
2018,04,23,15,53,18.10
2018,04,23,15,54,18.10
2018,04,23,15,55,18.10
2018,04,23,15,56,18.10
2018,04,23,15,57,18.00
2018,04,23,15,58,18.10
2018,04,23,15,59,18.10
2018,04,23,16,00,18.10
2018,04,23,16,01,18.20
2018,04,23,16,02,18.20
2018,04,23,16,03,18.20
2018,04,23,16,04,18.20
2018,04,23,16,05,18.20
2018,04,23,16,06,18.10
2018,04,23,16,07,18.10
2018,04,23,16,08,18.10
2018,04,23,16,09,18.10
2018,04,23,16,10,18.10
2018,04,23,16,11,18.00
2018,04,23,16,12,18.00
2018,04,23,16,13,18.00
2018,04,23,16,14,18.00
2018,04,23,16,15,18.10
2018,04,23,16,16,18.10
2018,04,23,16,17,18.10
2018,04,23,16,18,18.10
2018,04,23,16,19,18.20
2018,04,23,16,20,18.20
2018,04,23,16,21,18.20
2018,04,23,16,22,18.30
2018,04,23,16,23,18.20
2018,04,23,16,24,18.20
2018,04,23,16,25,18.30
2018,04,23,16,26,18.30
2018,04,23,16,27,18.30
2018,04,23,16,28,18.40
2018,04,23,16,29,18.40
2018,04,23,16,30,18.40
2018,04,23,16,31,18.40
2018,04,23,16,32,18.40
2018,04,23,16,33,18.40
2018,04,23,16,34,18.40
2018,04,23,16,35,18.40
2018,04,23,16,36,18.40
2018,04,23,16,37,18.40
2018,04,23,16,38,18.30
2018,04,23,16,39,18.30
2018,04,23,16,40,18.30
2018,04,23,16,41,18.30
2018,04,23,16,42,18.30
2018,04,23,16,43,18.30
2018,04,23,16,44,18.30
2018,04,23,16,45,18.30
2018,04,23,16,46,18.30
2018,04,23,16,47,18.30
2018,04,23,16,48,18.30
2018,04,23,16,49,18.30
2018,04,23,16,50,18.30
2018,04,23,16,51,18.30
2018,04,23,16,52,18.20
2018,04,23,16,53,18.20
2018,04,23,16,54,18.10
2018,04,23,16,55,18.10
2018,04,23,16,56,18.10
2018,04,23,16,57,18.10
2018,04,23,16,58,18.20
2018,04,23,16,59,18.20
2018,04,23,17,00,18.20
2018,04,23,17,01,18.20
2018,04,23,17,02,18.20
2018,04,23,17,03,18.20
2018,04,23,17,04,18.20
2018,04,23,17,05,18.30
2018,04,23,17,06,18.30
2018,04,23,17,07,18.30
2018,04,23,17,08,18.40
2018,04,23,17,09,18.40
2018,04,23,17,10,18.40
2018,04,23,17,11,18.30
2018,04,23,17,12,18.30
2018,04,23,17,13,18.30
2018,04,23,17,14,18.30
2018,04,23,17,15,18.30
2018,04,23,17,16,18.30
2018,04,23,17,17,18.30
2018,04,23,17,18,18.30
2018,04,23,17,19,18.30
2018,04,23,17,20,18.30
2018,04,23,17,21,18.40
2018,04,23,17,22,18.40
2018,04,23,17,23,18.40
2018,04,23,17,24,18.40
2018,04,23,17,25,18.40
2018,04,23,17,26,18.40
2018,04,23,17,27,18.40
2018,04,23,17,28,18.30
2018,04,23,17,29,18.30
2018,04,23,17,30,18.30
2018,04,23,17,31,18.30
2018,04,23,17,32,18.30
2018,04,23,17,33,18.30
2018,04,23,17,34,18.30
2018,04,23,17,35,18.30
2018,04,23,17,36,18.30
2018,04,23,17,37,18.30
2018,04,23,17,38,18.30
2018,04,23,17,39,18.40
2018,04,23,17,40,18.40